Location: ??????
(36.0418°N, 43.6351°E)
Time: 05:18:02
(UTC+00:00)

Cosmos 883 Rocket - Pass Details

Date: 24 June 2021
Orbit: 950 x 996 km, 83.0° (Epoch: 27 July)

Event Time Altitude Azimuth Distance (km) Brightness Sun altitude
Rises 23:37:28 0° 355° (N) 3,631 8.2 -20.9°
Reaches altitude 10° 23:39:59 10° 358° (N) 2,681 7.5 -20.6°
Maximum altitude 23:46:06 74° 83° (E) 989 4.6 -19.8°
Enters shadow 23:51:19 15° 167° (SSE) 2,349 6.2 -19.2°
